Wind_Speed
2 1 9 9 4 4 1 3 4 3 2 3 7 14 20 10 7 10 12 10 9 14 8 20 28 28 29 33 37 34 31 27 25 21 15 11 9 7 4 2 4 6 8 10
3 7 8 2 5 7 5 5 7 6 4 4 6 12 18 8 11 15 18 14 14 6 8 9 22 26 33 38 39 37 34 30 25 20 16 9 10 7 5 2 4 6 8 10
6 5 3 6 3 4 4 6 6 10 5 4 6 9 12 7 12 10 11 13 9 14 14 10 12 25 32 36 40 40 35 30 25 20 16 12 8 5 5 3 3 6 8 10
5 4 4 3 5 7 6 8 10 8 1 4 2 6 6 6 9 6 10 10 14 13 10 12 14 19 30 35 39 39 35 30 25 21 18 14 10 7 6 3 4 5 8 10
6 2 3 4 7 7 8 1 3 3 4 2 2 1 8 2 7 10 10 12 14 13 15 16 18 27 30 35 41 40 35 29 25 21 17 14 11 8 6 3 2 4 7 10
7 1 3 6 2 3 2 2 4 4 2 2 8 8 5 5 9 8 4 5 9 10 12 12 17 23 25 34 39 38 34 29 25 21 18 14 11 9 7 4 3 5 8 10
4 5 3 3 3 1 2 1 2 3 3 6 3 4 7 7 11 6 7 7 6 7 8 12 16 16 23 30 36 38 35 30 26 22 18 15 12 9 7 4 3 5 8 11
2 7 6 3 4 5 7 5 5 6 3 5 2 8 6 9 10 10 8 9 4 7 7 12 15 16 26 30 36 36 36 31 27 23 19 15 12 9 7 5 3 4 7 9
2 5 0 0 1 2 4 3 3 3 2 2 5 8 8 13 9 8 10 5 8 6 9 12 12 18 24 29 34 39 37 31 28 24 19 16 13 11 8 6 3 3 6 7
4 5 1 2 1 2 3 1 3 2 3 5 5 6 6 11 7 9 8 7 7 5 7 8 11 15 22 28 32 36 37 34 30 25 21 18 15 12 10 7 4 3 4 5
6 3 3 1 5 7 1 2 1 4 4 4 3 6 7 8 4 5 10 9 5 6 6 6 7 13 20 25 32 36 35 32 28 26 22 19 16 13 11 8 6 4 4 4
5 4 4 9 4 3 3 6 6 4 5 4 3 9 8 3 6 3 6 7 4 2 5 5 6 12 18 22 28 35 35 32 30 27 23 20 17 15 13 10 7 5 4 2
6 3 5 7 4 3 4 5 6 2 3 11 4 7 3 4 5 2 5 8 6 2 5 5 6 8 14 20 25 31 35 32 29 27 24 22 19 18 15 12 8 8 6 2
4 4 5 4 1 5 7 11 7 5 5 11 21 21 15 17 19 12 7 5 6 7 7 7 7 7 13 20 25 29 33 33 31 29 27 25 23 20 17 13 10 10 8 3
2 4 4 7 12 13 17 18 17 14 23 10 31 15 18 20 16 18 5 5 5 6 6 7 8 7 9 17 23 28 32 33 32 31 29 27 23 20 18 15 12 11 9 5
2 4 6 11 12 10 15 20 19 23 16 19 24 32 11 11 12 13 16 11 7 8 9 9 8 8 11 18 23 28 31 35 34 32 31 27 24 23 20 17 15 12 9 8
2 2 3 7 6 12 15 14 19 17 16 13 18 25 7 13 18 21 18 12 14 14 11 10 12 13 14 22 29 30 36 36 35 34 32 29 27 25 23 19 18 15 12 10
5 4 2 6 2 4 13 9 11 18 23 19 22 15 18 19 23 18 7 14 15 14 12 9 8 9 22 26 30 29 32 35 35 35 34 31 29 28 24 22 21 18 15 13
17 5 3 2 5 17 23 16 6 14 23 9 16 18 19 19 12 25 12 17 19 15 13 11 18 18 19 29 30 30 30 32 33 35 38 35 33 30 28 26 24 21 18 15
9 14 7 1 4 7 2 1 6 7 12 17 17 17 15 6 6 13 5 4 10 10 4 9 19 21 24 27 28 29 27 30 33 34 39 37 34 33 31 28 25 22 20 16
1 3 11 13 9 7 12 23 12 5 7 18 17 18 19 11 8 7 6 6 4 5 6 7 16 18 24 25 27 23 24 30 32 35 35 35 34 33 31 27 25 23 20 17
6 4 3 3 8 11 15 10 11 10 11 13 17 19 20 21 21 12 7 6 8 6 1 6 8 8 12 20 26 19 22 23 25 30 31 32 32 32 30 27 25 23 20 20
3 6 4 5 5 14 4 6 18 15 12 14 19 21 21 22 14 8 2 5 6 3 2 4 11 9 9 16 20 17 18 19 21 24 27 29 29 30 29 28 27 25 24 23
4 4 3 0 8 11 13 5 6 13 17 16 17 19 18 18 15 6 3 3 4 4 3 8 11 7 5 9 10 10 12 14 18 21 24 25 27 28 28 28 28 29 29 27
5 5 5 10 14 15 12 6 6 13 15 11 16 18 15 15 15 6 2 5 4 4 7 12 11 10 9 4 3 6 8 10 14 18 21 22 25 27 29 31 32 34 35 34
6 16 10 14 13 14 16 12 6 13 15 13 13 18 15 10 11 6 5 5 4 5 10 11 13 13 12 10 8 4 3 10 12 14 15 18 21 23 25 26 28 31 31 32
Wind_Direction
338 115 221 221 234 240 65 229 266 273 282 234 236 255 265 253 241 235 247 236 231 235 221 219 213 204 199 197 191 189 184 184 184 180 179 190 198 202 216 287 327 331 337 339
39 239 237 235 219 244 255 261 270 280 257 200 286 269 270 245 239 235 233 231 224 199 200 190 196 196 194 189 192 190 190 187 188 190 191 188 188 199 214 230 326 334 341 344
184 219 38 180 199 221 243 230 253 249 326 253 304 274 266 260 253 249 234 228 221 203 203 188 181 189 189 188 191 191 190 190 189 191 190 181 181 188 202 221 308 336 345 346
233 272 216 160 223 183 266 211 238 250 255 238 91 287 269 259 271 233 243 219 224 208 197 191 184 184 190 191 193 192 190 188 189 190 190 193 201 198 205 253 316 337 342 342
244 225 204 215 225 162 228 171 194 209 195 332 225 348 269 301 290 269 247 228 225 210 194 190 188 187 189 188 191 191 187 187 187 188 193 194 195 199 209 238 290 330 341 341
245 273 210 208 153 179 121 90 65 44 73 322 221 194 254 192 222 248 245 241 229 205 197 192 182 170 175 184 186 184 184 184 185 188 191 195 198 201 209 229 289 325 337 343
306 228 194 165 148 96 136 139 5 327 350 232 332 239 251 267 263 245 265 280 261 206 181 173 168 170 163 170 178 182 184 181 184 188 190 194 198 204 210 221 275 318 334 343
216 319 176 182 208 195 175 161 165 202 248 293 73 241 244 249 272 261 252 253 237 190 185 183 179 173 168 169 175 179 184 183 185 189 191 193 200 207 207 217 258 311 331 339
220 267 275 102 359 96 227 191 174 56 83 23 244 287 286 282 270 274 261 260 255 217 186 180 173 173 170 169 177 182 185 187 188 190 192 193 198 204 207 215 245 298 325 334
288 312 1 357 58 43 165 218 80 23 238 262 276 274 240 304 310 349 320 280 261 209 188 173 174 173 174 175 178 185 189 188 189 191 194 196 198 201 207 210 228 272 302 327
349 186 280 67 202 192 128 279 11 139 159 211 300 264 222 258 6 350 323 321 295 218 196 182 170 169 172 172 179 185 190 189 189 193 194 196 197 199 206 210 220 246 272 320
339 292 265 221 238 204 180 208 179 174 232 229 189 266 279 240 307 297 345 331 339 244 215 187 174 156 163 171 177 185 191 191 194 195 195 198 197 199 205 208 214 233 247 296
346 313 312 332 5 4 227 204 212 136 119 231 184 256 285 303 312 301 346 355 353 204 170 173 161 173 175 179 182 187 193 194 195 196 196 197 198 202 206 209 213 227 228 241
277 268 259 253 42 342 300 319 273 213 229 248 241 253 282 299 302 292 296 307 309 267 198 175 191 192 183 182 185 189 194 197 196 197 199 200 201 204 206 207 214 228 225 214
115 252 265 281 294 300 286 279 262 234 241 234 258 243 246 253 270 276 312 276 288 283 246 196 193 190 184 183 188 194 197 198 198 199 202 205 203 203 206 207 216 223 221 201
351 269 305 284 274 272 291 282 269 254 249 253 264 270 257 284 278 285 279 294 282 271 250 227 193 185 193 191 191 195 198 201 201 202 206 206 202 204 207 207 217 219 220 213
225 222 28 270 3 330 295 265 236 247 234 242 251 258 278 271 265 259 266 255 258 260 250 225 206 200 195 196 195 195 202 203 202 206 209 205 204 206 207 207 219 221 224 226
214 165 180 265 62 231 256 319 296 267 253 241 256 266 259 256 267 275 225 247 243 238 239 229 209 204 203 206 204 202 204 203 203 208 210 206 206 208 207 209 220 226 227 232
218 203 260 233 206 279 286 289 330 319 290 292 291 284 271 270 279 279 233 233 240 231 231 226 214 208 200 200 203 199 198 200 201 206 210 207 208 209 208 212 218 226 231 232
197 206 205 169 232 240 319 307 270 279 270 5 346 326 321 296 251 273 305 303 257 248 221 214 215 201 198 201 197 190 191 195 204 206 213 211 209 212 212 216 218 225 233 237
172 193 216 241 245 276 8 331 309 266 331 331 329 320 315 298 263 281 308 296 266 278 262 238 194 189 200 194 191 186 185 205 209 212 214 214 212 216 219 220 221 226 231 236
182 185 219 250 233 247 8 340 343 330 304 326 323 313 313 305 293 269 277 305 323 316 241 186 171 176 180 183 181 179 197 210 211 212 212 213 214 218 220 221 223 226 228 233
263 185 210 185 274 292 159 305 300 294 328 319 313 312 313 306 288 263 301 5 345 339 74 112 138 132 154 180 189 180 198 203 202 204 209 212 215 219 221 220 221 224 226 230
265 162 216 146 252 256 282 220 242 300 296 318 312 303 306 305 302 302 25 43 37 19 39 82 107 101 110 168 182 198 194 192 193 202 211 211 214 217 222 225 226 227 227 227
210 165 219 252 275 282 271 228 238 293 294 298 303 302 304 306 299 287 61 32 29 68 57 71 78 77 67 97 162 191 183 186 197 208 211 213 218 221 224 228 228 230 235 234
211 245 242 254 266 273 284 284 270 284 287 305 310 307 316 319 298 280 78 55 38 49 54 57 62 56 45 51 67 77 188 209 213 217 220 222 224 228 230 231 235 238 244 247
Height
768 776 776 769 769 763 760 764 762 754 748 750 752 744 728 732 740 739 736 736 735 733 729 732 737 742 746 751 757 762 766 771 774 778 782 786 788 790 792 792 791 791 790 789
774 777 764 761 768 767 767 766 767 756 751 755 750 746 727 728 727 716 714 718 722 726 727 727 732 737 740 744 751 758 762 767 771 774 779 783 786 788 790 790 790 789 788 788
774 760 758 764 765 768 768 770 765 761 753 755 756 746 718 713 711 706 706 704 707 712 717 722 727 731 736 739 745 752 758 763 768 772 776 780 784 786 788 788 788 787 786 786
772 760 756 762 764 766 767 759 758 760 759 776 753 774 721 706 704 702 699 703 699 702 706 712 718 725 728 733 741 748 755 760 765 769 772 776 779 782 784 785 785 785 785 784
758 753 755 759 756 758 760 748 755 757 767 765 758 780 722 707 702 693 686 690 690 692 697 702 706 712 722 729 735 743 752 757 761 765 770 773 776 779 780 782 782 783 783 782
762 755 754 752 750 752 753 752 759 773 774 818 758 756 725 709 691 680 674 679 685 688 691 696 703 710 718 725 732 739 747 753 758 762 766 770 773 775 777 778 779 779 779 780
759 755 749 748 749 753 753 755 781 786 830 788 759 757 712 693 686 682 678 678 681 688 691 694 698 705 712 720 728 736 743 749 754 759 763 767 770 773 773 775 776 777 777 777
778 769 754 749 746 747 752 761 781 784 800 784 758 754 704 684 680 682 680 680 679 687 689 690 694 700 706 714 723 731 738 745 751 756 760 764 767 770 772 772 773 774 774 774
780 761 752 751 750 750 762 768 753 768 826 809 755 721 700 677 677 679 680 681 682 685 686 688 693 698 703 710 718 725 734 742 748 753 758 761 765 767 769 770 771 772 772 771
766 778 756 755 752 756 758 754 771 789 771 803 753 740 705 680 672 676 675 678 682 685 688 688 692 696 701 707 715 723 730 736 743 750 754 758 761 764 767 768 768 769 769 769
775 772 761 756 760 757 767 774 772 762 770 790 793 726 702 684 683 682 683 680 682 687 690 691 693 696 701 707 713 720 728 734 741 746 751 754 757 761 764 765 766 767 767 767
789 778 776 762 749 749 750 753 752 764 769 773 781 713 682 680 688 687 685 685 683 687 691 693 695 696 701 706 712 717 724 730 736 742 746 751 754 758 761 762 763 765 765 764
797 786 783 770 761 756 753 750 744 757 759 746 775 714 689 683 682 682 684 682 683 684 689 694 696 698 700 705 710 715 720 726 733 739 742 747 750 754 757 759 760 762 762 762
794 790 782 778 774 790 766 756 750 755 751 729 715 697 694 686 681 678 684 683 683 684 685 689 694 695 697 701 706 711 717 723 729 734 738 741 744 749 753 755 757 760 760 759
806 822 797 793 785 778 768 760 750 744 731 735 677 708 699 690 692 684 690 685 685 686 688 683 688 692 695 699 702 708 713 719 725 730 733 736 741 746 749 751 754 757 757 757
812 826 797 796 778 766 765 754 748 732 730 722 712 695 699 692 691 690 684 684 683 682 682 681 682 686 690 692 696 703 708 714 720 724 728 732 737 741 745 747 750 753 755 755
820 827 834 819 779 777 767 731 723 715 713 711 710 682 692 691 683 675 674 678 678 674 673 674 674 676 680 684 689 695 702 709 714 718 723 728 732 736 740 743 746 750 752 753
819 824 819 812 813 820 725 724 725 713 697 697 693 692 686 681 669 668 674 670 668 667 666 667 667 669 670 677 683 690 697 702 708 713 717 722 727 732 736 739 742 746 748 749
791 806 837 832 848 757 733 727 721 719 698 696 694 685 679 675 677 654 662 657 652 652 652 653 655 658 664 670 676 684 691 697 702 705 709 714 720 726 730 732 737 742 744 745
785 789 795 828 815 821 722 730 729 720 703 716 713 704 694 683 678 652 659 659 652 648 646 647 648 652 659 664 670 677 683 689 691 695 701 707 713 719 723 727 733 737 740 742
812 790 783 773 769 773 747 741 719 712 717 717 717 710 702 692 676 664 662 656 653 650 647 646 646 647 650 655 663 670 676 679 680 688 695 703 708 713 718 723 728 732 735 738
790 792 783 764 760 762 751 741 741 733 723 721 715 710 699 687 672 663 660 654 651 649 646 646 648 649 651 654 658 665 669 673 679 685 691 697 703 708 713 718 723 726 730 732
785 767 767 759 754 736 743 750 742 737 731 721 714 703 698 685 668 660 652 651 651 650 648 647 647 651 653 656 659 662 666 672 677 682 686 692 698 703 707 712 716 720 724 727
758 754 754 750 734 734 728 731 734 733 725 716 711 704 695 685 671 661 654 654 654 653 651 651 651 654 656 658 660 664 667 671 674 678 683 687 692 697 702 706 709 712 716 719
747 750 752 742 729 726 723 723 722 718 712 709 707 702 691 683 673 661 656 658 658 656 655 654 654 656 659 661 664 667 669 670 673 676 680 683 687 690 693 696 699 702 705 709
737 734 738 729 724 722 716 714 715 714 707 700 702 691 685 681 674 662 658 659 661 660 660 660 661 662 663 665 665 667 668 670 672 674 676 678 682 685 688 690 692 695 697 702